Regional Weather Roundup
Issued by NWS

Home | Current Version | Previous Version | Graphics & Text | Print | Product List | Glossary On
Versions: 1 2 3 4 5 6 7 8 9 10 11 12 13 14 15 16 17 18 19 20 21 22 23 24 25 26 27 28 29 30 31 32 33 34 35 36 37 38 39 40 41 42 43 44 45 46 47 48 49 50
000
ASUS45 KABQ 221601
RWRNM
NEW MEXICO REGIONAL WEATHER ROUNDUP
NATIONAL WEATHER SERVICE ALBUQUERQUE NM
900 AM MST MON JAN 22 2018

NOTE: "FAIR" MEANS FEW OR NO CLOUDS BELOW 12,000 FEET AGL WITH NO
       SIGNIFICANT WEATHER OR OBSTRUCTIONS TO VISION.

      THIS PRODUCT IS RELEASED AS TWO VERSIONS.  ONE VERSION NEAR
      THE TOP OF THE HOUR CONTAINING PRELIMINARY DATA FROM ALBUQUERQUE
      AND OTHER STATIONS.  A FINAL VERSION WITH ADDITIONAL DATA IS
      ISSUED ABOUT 10 MINUTES AFTER THE HOUR.

NMZ501-503-504-510>518-221700-
NORTHWEST PLATEAU/NORTHCENTRAL MOUNTAINS

CITY           SKY/WX    TMP DP  RH WIND       PRES   REMARKS
FARMINGTON     FAIR      19  10  68 E8        30.26R WCI   9
LOS ALAMOS     FAIR      21   6  52 N13       30.16R WCI   9
SANTA FE       FAIR      20  12  71 N16       30.17R WCI   6
TAOS           FAIR      12   6  77 NW5       30.23R WCI   4
ANGEL FIRE     FAIR       4  -1  77 NE6       30.12R WCI  -6

$$
NMZ402-403-502-505>509-221700-
WESTCENTRAL MOUNTAINS/SOUTHWEST MOUNTAINS

CITY           SKY/WX    TMP DP  RH WIND       PRES   REMARKS
GALLUP         FAIR       9   5  84 CALM      30.26R
GRANTS         FAIR      17   8  69 NW7       30.27R WCI   7
SILVER CITY    FAIR      32   8  35 NW7       30.23S WCI  26

$$
NMZ407-409-411-412-221700-
SOUTHERN DESERTS

CITY           SKY/WX    TMP DP  RH WIND       PRES   REMARKS
DEMING         FAIR      29  11  47 NW3       30.25R
LAS CRUCES     FAIR      36   8  31 N7        30.26R WCI  30
HOLLOMAN AFB   FAIR      38   8  28 N17       30.27R WCI  28
ALAMOGORDO     FAIR      37   5  25 N16G23    30.25R WCI  28
T OR C         FAIR      34   7  32 NW12      30.26R WCI  25

$$
NMZ519>523-221700-
CENTRAL VALLEYS/CENTRAL HIGHLANDS

CITY           SKY/WX    TMP DP  RH WIND       PRES   REMARKS
ALBUQUERQUE    FAIR      27  10  49 N16       30.25R WCI  15
DOUBLE EAGLE   SUNNY     27  10  50 NW15G21   30.23R WCI  15
MORIARTY ARPT  FAIR      28  11  49 NW8       30.21R WCI  20
CLINES CORNERS NOT AVBL
BELEN          FAIR      28  10  47 N6        30.27R WCI  22
SOCORRO        FAIR      31   7  36 NE9       30.27R WCI  23

$$
NMZ524>526-539-540-221700-
SOUTHCENTRAL MOUNTAINS

CITY           SKY/WX    TMP DP  RH WIND       PRES   REMARKS
RUIDOSO        NOT AVBL

$$
NMZ527>531-221700-
NORTHEAST HIGHLANDS/NORTHEAST PLAINS

CITY           SKY/WX    TMP DP  RH WIND       PRES   REMARKS
LAS VEGAS      FAIR      29   0  28 NW17G23   30.07R WCI  17
RATON          FAIR      24  11  57 S3        30.05R
CLAYTON        FAIR      32   8  36 W7        30.02R WCI  26

$$
NMZ532>537-221700-
EASTCENTRAL PLAINS

CITY           SKY/WX    TMP DP  RH WIND       PRES   REMARKS
TUCUMCARI      FAIR      31  18  58 W9        30.10R WCI  23
CANNON AFB     FAIR      30  15  52 W12       30.14R WCI  20
CLOVIS AIRPORT FAIR      33  15  47 W9        30.13R WCI  25

$$
NMZ028-029-538-221700-
SOUTHEAST PLAINS

CITY           SKY/WX    TMP DP  RH WIND       PRES   REMARKS
ROSWELL        FAIR      44   6  21 NW20G30   30.16R
ARTESIA        FAIR      43   7  22 W14       30.19R
CARLSBAD       FAIR      45   9  23 W9        30.19R
HOBBS          SUNNY     41   7  24 NW24G32   30.17R


$$




USA.gov is the U.S. government's official web portal to all federal, state and local government web resources and services.